UAL3939 KIAD-KORD

Flight info

Callsign UAL3939
Flight time N/A
Altitude 40000
Route BUNZZ3 RAMAY Q72 HACKS J149 ROD WATSN4
Aircraft B772/H-SDE2E3FGHIJ5LORVWXY/LB1D1

Departure

Time 2026-05-07 18:15
Airport Washington Dulles International Airport (KIAD)

Arrival

Time N/A
Airport Chicago O'Hare International Airport (KORD)
Time Latitude Longitude Altitude Speed Heading
2026-05-07 17:52 38.94590 -77.45203 302 ft 0 kts 161°
2026-05-07 18:07 38.94598 -77.45207 302 ft 2 kts 163°
2026-05-07 18:07 38.94613 -77.45209 302 ft 2 kts 183°
2026-05-07 18:07 38.94628 -77.45207 301 ft 2 kts 199°
2026-05-07 18:07 38.94641 -77.45199 301 ft 2 kts 214°
2026-05-07 18:08 38.94653 -77.45187 301 ft 2 kts 230°
2026-05-07 18:08 38.94661 -77.45171 301 ft 2 kts 246°
2026-05-07 18:08 38.94665 -77.45152 301 ft 2 kts 262°
2026-05-07 18:08 38.94666 -77.45142 301 ft 1 kts 271°
2026-05-07 18:09 38.94666 -77.45138 301 ft 0 kts 271°
2026-05-07 18:10 38.94666 -77.45139 301 ft 1 kts 271°
2026-05-07 18:10 38.94667 -77.45185 301 ft 8 kts 271°
2026-05-07 18:11 38.94667 -77.45290 301 ft 13 kts 271°
2026-05-07 18:11 38.94668 -77.45373 300 ft 14 kts 271°
2026-05-07 18:11 38.94669 -77.45566 297 ft 10 kts 264°
2026-05-07 18:11 38.94609 -77.45606 298 ft 11 kts 183°
2026-05-07 18:12 38.94518 -77.45609 298 ft 15 kts 181°
2026-05-07 18:12 38.94394 -77.45612 299 ft 19 kts 181°
2026-05-07 18:12 38.94248 -77.45614 301 ft 22 kts 180°
2026-05-07 18:12 38.94077 -77.45615 300 ft 25 kts 180°
2026-05-07 18:13 38.93892 -77.45617 297 ft 27 kts 181°
2026-05-07 18:13 38.93702 -77.45631 295 ft 26 kts 194°
2026-05-07 18:13 38.93574 -77.45691 292 ft 11 kts 200°
2026-05-07 18:13 38.93508 -77.45722 291 ft 10 kts 201°
2026-05-07 18:14 38.93436 -77.45759 290 ft 9 kts 207°
2026-05-07 18:14 38.93435 -77.45843 289 ft 13 kts 290°
2026-05-07 18:14 38.93534 -77.46180 294 ft 77 kts 291°
2026-05-07 18:14 38.93813 -77.47128 303 ft 146 kts 290°
2026-05-07 18:15 38.94218 -77.48520 642 ft 169 kts 291°
2026-05-07 18:15 38.94491 -77.49931 1420 ft 172 kts 269°
2026-05-07 18:15 38.94241 -77.51380 2387 ft 167 kts 258°
2026-05-07 18:15 38.93931 -77.52724 2743 ft 162 kts 258°
2026-05-07 18:16 38.93592 -77.54159 2829 ft 171 kts 257°
2026-05-07 18:16 38.93245 -77.55622 3055 ft 173 kts 257°
2026-05-07 18:16 38.92889 -77.57121 3304 ft 173 kts 257°
2026-05-07 18:16 38.92536 -77.58597 3567 ft 172 kts 257°
2026-05-07 18:17 38.92181 -77.60090 3657 ft 183 kts 257°
2026-05-07 18:17 38.91791 -77.61736 3666 ft 200 kts 257°
2026-05-07 18:17 38.91362 -77.63537 3777 ft 220 kts 256°
2026-05-07 18:17 38.90900 -77.65468 3993 ft 237 kts 255°
2026-05-07 18:18 38.90395 -77.67569 4266 ft 253 kts 255°
2026-05-07 18:18 38.89865 -77.69756 4731 ft 261 kts 255°
2026-05-07 18:18 38.89439 -77.72003 5327 ft 262 kts 263°
2026-05-07 18:18 38.89188 -77.74313 5995 ft 261 kts 265°
2026-05-07 18:19 38.88954 -77.76617 6606 ft 262 kts 264°
2026-05-07 18:19 38.88719 -77.78892 7291 ft 260 kts 263°
2026-05-07 18:19 38.88480 -77.81171 8038 ft 256 kts 263°
2026-05-07 18:19 38.88247 -77.83386 8755 ft 252 kts 262°
2026-05-07 18:20 38.88012 -77.85620 9422 ft 251 kts 261°
2026-05-07 18:20 38.87782 -77.87791 10080 ft 250 kts 261°
2026-05-07 18:20 38.87550 -77.90068 10389 ft 264 kts 263°
2026-05-07 18:20 38.87550 -77.92476 10585 ft 283 kts 272°
2026-05-07 18:21 38.87949 -77.95057 10806 ft 304 kts 283°
2026-05-07 18:21 38.88714 -77.97649 11120 ft 321 kts 288°
2026-05-07 18:21 38.89566 -78.00335 11417 ft 336 kts 288°
2026-05-07 18:21 38.90450 -78.03174 11939 ft 345 kts 288°
2026-05-07 18:22 38.91331 -78.06039 12781 ft 346 kts 287°
2026-05-07 18:22 38.91621 -78.06986 13070 ft 346 kts 287°
2026-05-07 18:22 38.93076 -78.11760 14442 ft 351 kts 287°
2026-05-07 18:22 38.93955 -78.14653 15359 ft 352 kts 287°
2026-05-07 18:23 38.94840 -78.17569 16286 ft 353 kts 287°
2026-05-07 18:23 38.95679 -78.20528 17116 ft 353 kts 282°
2026-05-07 18:23 38.96196 -78.23617 17807 ft 355 kts 275°
2026-05-07 18:23 38.96427 -78.26749 18568 ft 357 kts 271°
2026-05-07 18:24 38.96624 -78.29887 19458 ft 355 kts 271°
2026-05-07 18:24 38.96822 -78.33032 20272 ft 355 kts 270°
2026-05-07 18:24 38.97022 -78.36199 21009 ft 356 kts 271°
2026-05-07 18:24 38.97223 -78.39346 21797 ft 356 kts 270°
2026-05-07 18:25 38.97423 -78.42487 22529 ft 356 kts 270°
2026-05-07 18:25 38.97625 -78.45663 23199 ft 358 kts 270°
2026-05-07 18:25 38.97827 -78.48865 23821 ft 360 kts 270°
2026-05-07 18:25 38.98026 -78.52035 24422 ft 362 kts 270°
2026-05-07 18:26 38.98230 -78.55271 25023 ft 364 kts 269°
2026-05-07 18:26 38.98431 -78.58488 25630 ft 364 kts 269°
2026-05-07 18:26 38.98633 -78.61734 26259 ft 365 kts 269°
2026-05-07 18:26 38.98833 -78.64957 26819 ft 366 kts 269°
2026-05-07 18:27 38.99034 -78.68234 27450 ft 367 kts 269°
2026-05-07 18:27 38.99234 -78.71460 28150 ft 366 kts 268°
2026-05-07 18:27 38.99433 -78.74729 28779 ft 366 kts 268°
2026-05-07 18:27 38.99564 -78.76884 29164 ft 366 kts 268°
2026-05-07 18:28 38.99826 -78.81191 29973 ft 367 kts 268°
2026-05-07 18:28 39.00023 -78.84461 30609 ft 367 kts 268°
2026-05-07 18:28 39.00219 -78.87725 31295 ft 365 kts 268°
2026-05-07 18:28 39.00411 -78.90931 32077 ft 360 kts 268°
2026-05-07 18:29 39.00600 -78.94102 32853 ft 355 kts 269°
2026-05-07 18:29 39.00785 -78.97224 33553 ft 351 kts 268°
2026-05-07 18:29 39.00968 -79.00342 34102 ft 349 kts 268°
2026-05-07 18:29 39.01149 -79.03451 34440 ft 352 kts 269°
2026-05-07 18:30 39.01331 -79.06597 34742 ft 356 kts 269°
2026-05-07 18:30 39.01517 -79.09799 35127 ft 357 kts 269°
2026-05-07 18:30 39.01703 -79.13022 35546 ft 358 kts 269°
2026-05-07 18:30 39.01890 -79.16270 36003 ft 359 kts 269°
2026-05-07 18:31 39.02083 -79.19500 36426 ft 360 kts 269°
2026-05-07 18:31 39.02300 -79.22752 36815 ft 362 kts 270°
2026-05-07 18:31 39.02517 -79.26008 37128 ft 364 kts 270°
2026-05-07 18:31 39.02730 -79.29234 37449 ft 365 kts 270°
2026-05-07 18:32 39.02944 -79.32501 37759 ft 366 kts 270°
2026-05-07 18:32 39.03157 -79.35788 37971 ft 368 kts 270°
2026-05-07 18:32 39.03370 -79.39079 38160 ft 371 kts 271°
2026-05-07 18:32 39.03585 -79.42423 38348 ft 374 kts 271°
2026-05-07 18:33 39.03797 -79.45731 38668 ft 373 kts 270°
2026-05-07 18:33 39.04011 -79.49084 39005 ft 372 kts 271°
2026-05-07 18:33 39.04223 -79.52411 39293 ft 372 kts 270°
2026-05-07 18:33 39.04433 -79.55750 39476 ft 373 kts 270°
2026-05-07 18:34 39.04642 -79.59082 39610 ft 375 kts 271°
2026-05-07 18:34 39.04849 -79.62386 39796 ft 376 kts 270°
2026-05-07 18:34 39.05060 -79.65777 39890 ft 377 kts 270°
2026-05-07 18:35 39.05474 -79.72463 39904 ft 374 kts 270°
2026-05-07 18:35 39.05883 -79.79151 39910 ft 375 kts 270°
2026-05-07 18:36 39.06290 -79.85867 39915 ft 376 kts 270°
2026-05-07 18:36 39.06694 -79.92574 39919 ft 377 kts 270°
2026-05-07 18:37 39.07091 -79.99265 39918 ft 377 kts 271°
2026-05-07 18:37 39.07487 -80.05970 39910 ft 376 kts 270°
2026-05-07 18:38 39.07880 -80.12714 39921 ft 380 kts 271°
2026-05-07 18:38 39.08270 -80.19461 39906 ft 377 kts 270°
2026-05-07 18:39 39.08653 -80.26151 39903 ft 379 kts 271°
2026-05-07 18:39 39.09032 -80.32914 39909 ft 379 kts 270°
2026-05-07 18:40 39.09395 -80.39624 39908 ft 379 kts 270°
2026-05-07 18:40 39.09757 -80.46368 39907 ft 379 kts 270°
2026-05-07 18:41 39.10116 -80.53150 39898 ft 380 kts 270°
2026-05-07 18:41 39.10472 -80.59947 39891 ft 381 kts 271°
2026-05-07 18:42 39.10823 -80.66697 39914 ft 380 kts 270°
2026-05-07 18:42 39.11172 -80.73502 39905 ft 381 kts 270°
2026-05-07 18:43 39.11517 -80.80299 39915 ft 381 kts 270°
2026-05-07 18:43 39.11858 -80.87097 39914 ft 382 kts 271°
2026-05-07 18:44 39.12195 -80.93906 39914 ft 382 kts 270°
2026-05-07 18:44 39.12530 -81.00754 39916 ft 383 kts 271°
2026-05-07 18:45 39.13104 -81.07569 39911 ft 387 kts 277°
2026-05-07 18:45 39.14885 -81.14157 39924 ft 395 kts 289°
2026-05-07 18:46 39.17474 -81.20429 39929 ft 399 kts 290°
2026-05-07 18:46 39.20075 -81.26710 39924 ft 398 kts 290°